QPF
0.00 0.00 0.00 0.00 0.00 0.00 0.00 0.00 0.00 0.00 0.00 0.00 0.00 0.00 0.00 0.00 0.00 0.00 0.00 0.00 0.00 0.00 0.00 0.00 0.00 0.00 0.00 0.00 0.00 0.00 0.00 0.00 0.00 0.00 0.00 0.00 0.00 0.00 0.00 0.00 0.00 0.00 0.00 0.00 0.00 0.00 0.00 0.00 0.01
0.00 0.00 0.00 0.00 0.00 0.00 0.00 0.00 0.00 0.00 0.00 0.00 0.00 0.00 0.00 0.00 0.00 0.00 0.00 0.00 0.00 0.00 0.00 0.00 0.00 0.00 0.00 0.00 0.00 0.00 0.00 0.00 0.00 0.00 0.00 0.00 0.00 0.00 0.00 0.00 0.00 0.00 0.00 0.00 0.00 0.00 0.00 0.00 0.00
0.00 0.00 0.00 0.00 0.00 0.00 0.00 0.00 0.00 0.00 0.00 0.00 0.00 0.00 0.00 0.00 0.00 0.00 0.00 0.00 0.00 0.00 0.00 0.00 0.00 0.00 0.00 0.00 0.00 0.00 0.00 0.00 0.00 0.00 0.00 0.00 0.00 0.00 0.00 0.00 0.00 0.00 0.00 0.00 0.00 0.00 0.00 0.00 0.00
0.00 0.00 0.00 0.00 0.00 0.00 0.00 0.00 0.00 0.00 0.00 0.00 0.00 0.00 0.00 0.00 0.00 0.00 0.00 0.00 0.00 0.00 0.00 0.00 0.00 0.00 0.00 0.00 0.00 0.00 0.00 0.00 0.00 0.00 0.00 0.00 0.00 0.00 0.00 0.00 0.00 0.00 0.00 0.00 0.00 0.00 0.00 0.00 0.00
0.00 0.00 0.00 0.00 0.00 0.00 0.00 0.00 0.00 0.00 0.00 0.00 0.00 0.00 0.00 0.00 0.00 0.00 0.00 0.00 0.00 0.00 0.00 0.00 0.00 0.00 0.00 0.00 0.00 0.00 0.00 0.00 0.00 0.00 0.00 0.00 0.00 0.00 0.00 0.00 0.00 0.00 0.00 0.00 0.00 0.00 0.00 0.00 0.00
0.00 0.00 0.00 0.00 0.00 0.00 0.00 0.00 0.00 0.00 0.00 0.00 0.00 0.00 0.00 0.00 0.00 0.00 0.00 0.00 0.00 0.00 0.00 0.00 0.00 0.00 0.00 0.00 0.00 0.00 0.00 0.00 0.00 0.00 0.00 0.00 0.00 0.00 0.00 0.00 0.00 0.00 0.00 0.00 0.00 0.00 0.00 0.00 0.00
0.00 0.00 0.00 0.00 0.00 0.00 0.00 0.00 0.00 0.00 0.00 0.00 0.00 0.00 0.00 0.00 0.00 0.00 0.00 0.00 0.00 0.00 0.00 0.00 0.00 0.00 0.00 0.00 0.00 0.00 0.00 0.00 0.00 0.00 0.00 0.00 0.00 0.00 0.00 0.00 0.00 0.00 0.00 0.00 0.00 0.00 0.00 0.00 0.00
0.00 0.00 0.00 0.00 0.00 0.00 0.00 0.00 0.00 0.00 0.00 0.00 0.00 0.00 0.00 0.00 0.00 0.00 0.00 0.00 0.00 0.00 0.00 0.00 0.00 0.00 0.00 0.00 0.00 0.00 0.00 0.00 0.00 0.00 0.00 0.00 0.00 0.00 0.00 0.00 0.00 0.00 0.00 0.00 0.00 0.00 0.00 0.00 0.00
0.00 0.00 0.00 0.00 0.00 0.00 0.00 0.00 0.00 0.00 0.00 0.00 0.00 0.00 0.00 0.00 0.00 0.00 0.00 0.00 0.00 0.00 0.00 0.00 0.00 0.00 0.00 0.00 0.00 0.00 0.00 0.00 0.00 0.00 0.00 0.00 0.00 0.00 0.00 0.00 0.00 0.00 0.00 0.00 0.00 0.00 0.00 0.00 0.00
0.00 0.00 0.00 0.00 0.00 0.00 0.00 0.00 0.00 0.00 0.00 0.00 0.00 0.00 0.00 0.00 0.00 0.00 0.00 0.00 0.00 0.00 0.00 0.00 0.00 0.00 0.00 0.00 0.00 0.00 0.00 0.00 0.00 0.00 0.00 0.00 0.00 0.00 0.00 0.00 0.00 0.00 0.00 0.00 0.00 0.00 0.00 0.00 0.00
0.00 0.00 0.00 0.00 0.00 0.00 0.00 0.00 0.00 0.00 0.00 0.00 0.00 0.00 0.00 0.00 0.00 0.00 0.00 0.00 0.00 0.00 0.00 0.00 0.00 0.00 0.00 0.00 0.00 0.00 0.00 0.00 0.00 0.00 0.00 0.00 0.00 0.00 0.00 0.00 0.00 0.00 0.00 0.00 0.00 0.00 0.00 0.00 0.00
0.00 0.00 0.00 0.00 0.00 0.00 0.00 0.00 0.00 0.00 0.00 0.00 0.00 0.00 0.00 0.00 0.00 0.00 0.00 0.00 0.00 0.00 0.00 0.00 0.00 0.00 0.00 0.00 0.00 0.00 0.00 0.00 0.00 0.00 0.00 0.00 0.00 0.00 0.00 0.00 0.00 0.00 0.00 0.00 0.00 0.00 0.00 0.00 0.00
0.00 0.00 0.00 0.00 0.00 0.00 0.00 0.00 0.00 0.00 0.00 0.00 0.00 0.00 0.00 0.00 0.00 0.00 0.00 0.00 0.00 0.00 0.00 0.00 0.00 0.00 0.00 0.00 0.00 0.00 0.00 0.00 0.00 0.00 0.00 0.00 0.00 0.00 0.00 0.00 0.00 0.00 0.00 0.00 0.00 0.00 0.00 0.00 0.00
0.00 0.00 0.00 0.00 0.00 0.00 0.00 0.00 0.00 0.00 0.00 0.00 0.00 0.00 0.00 0.00 0.00 0.00 0.00 0.00 0.00 0.00 0.00 0.00 0.00 0.00 0.00 0.00 0.00 0.00 0.00 0.00 0.00 0.00 0.00 0.00 0.00 0.00 0.00 0.00 0.00 0.00 0.00 0.00 0.00 0.00 0.00 0.00 0.00
0.00 0.00 0.00 0.00 0.00 0.00 0.00 0.00 0.00 0.00 0.00 0.00 0.00 0.00 0.00 0.00 0.00 0.00 0.00 0.00 0.00 0.00 0.00 0.00 0.00 0.00 0.00 0.00 0.00 0.00 0.00 0.00 0.00 0.00 0.00 0.00 0.00 0.00 0.00 0.00 0.00 0.00 0.00 0.00 0.00 0.00 0.00 0.00 0.00
0.00 0.00 0.00 0.00 0.00 0.00 0.00 0.00 0.00 0.00 0.00 0.00 0.00 0.00 0.00 0.00 0.00 0.00 0.00 0.00 0.00 0.00 0.00 0.00 0.00 0.00 0.00 0.00 0.00 0.00 0.00 0.00 0.00 0.00 0.00 0.00 0.00 0.00 0.00 0.00 0.00 0.00 0.00 0.00 0.00 0.00 0.00 0.00 0.00
0.00 0.00 0.00 0.00 0.00 0.00 0.00 0.00 0.00 0.00 0.00 0.00 0.00 0.00 0.00 0.00 0.00 0.00 0.00 0.00 0.00 0.00 0.00 0.00 0.00 0.00 0.00 0.00 0.00 0.00 0.00 0.00 0.00 0.00 0.00 0.00 0.00 0.00 0.00 0.00 0.00 0.00 0.00 0.00 0.00 0.00 0.00 0.00 0.00
0.00 0.00 0.00 0.00 0.00 0.00 0.00 0.00 0.00 0.00 0.00 0.00 0.00 0.00 0.00 0.00 0.00 0.00 0.00 0.00 0.00 0.00 0.00 0.00 0.00 0.00 0.00 0.00 0.00 0.00 0.00 0.00 0.00 0.00 0.00 0.00 0.00 0.00 0.00 0.00 0.01 0.01 0.01 0.01 0.01 0.02 0.01 0.01 0.00
0.00 0.00 0.00 0.00 0.00 0.00 0.00 0.00 0.00 0.00 0.00 0.00 0.00 0.00 0.00 0.00 0.00 0.00 0.00 0.00 0.00 0.00 0.00 0.00 0.00 0.00 0.00 0.00 0.00 0.00 0.00 0.00 0.00 0.00 0.00 0.00 0.00 0.00 0.00 0.00 0.00 0.01 0.02 0.02 0.02 0.02 0.02 0.01 0.01
0.00 0.00 0.00 0.00 0.00 0.00 0.00 0.00 0.00 0.00 0.00 0.00 0.00 0.00 0.00 0.00 0.00 0.00 0.00 0.00 0.00 0.00 0.00 0.00 0.00 0.00 0.00 0.00 0.00 0.00 0.00 0.00 0.00 0.00 0.00 0.00 0.00 0.00 0.00 0.00 0.00 0.00 0.01 0.01 0.00 0.01 0.01 0.01 0.01
0.00 0.00 0.00 0.00 0.00 0.00 0.00 0.00 0.00 0.00 0.00 0.00 0.00 0.00 0.00 0.00 0.00 0.00 0.00 0.00 0.00 0.00 0.00 0.00 0.00 0.00 0.00 0.00 0.00 0.00 0.00 0.00 0.00 0.00 0.00 0.00 0.00 0.00 0.00 0.00 0.00 0.00 0.00 0.00 0.01 0.01 0.01 0.01 0.00
0.00 0.00 0.00 0.00 0.00 0.00 0.00 0.00 0.00 0.00 0.00 0.00 0.00 0.00 0.00 0.00 0.00 0.00 0.00 0.00 0.00 0.00 0.00 0.00 0.00 0.00 0.00 0.00 0.00 0.00 0.00 0.00 0.00 0.00 0.00 0.00 0.00 0.00 0.00 0.00 0.00 0.00 0.00 0.00 0.00 0.00 0.00 0.02 0.01
0.00 0.00 0.00 0.00 0.00 0.00 0.00 0.00 0.00 0.00 0.00 0.00 0.00 0.00 0.00 0.00 0.00 0.00 0.00 0.00 0.00 0.00 0.00 0.00 0.00 0.00 0.00 0.00 0.00 0.00 0.00 0.00 0.00 0.00 0.00 0.00 0.00 0.00 0.00 0.00 0.00 0.00 0.00 0.00 0.00 0.00 0.01 0.01 0.02
0.00 0.00 0.00 0.00 0.00 0.00 0.00 0.00 0.00 0.00 0.00 0.00 0.00 0.00 0.00 0.00 0.00 0.00 0.00 0.00 0.00 0.00 0.00 0.00 0.00 0.00 0.00 0.00 0.00 0.00 0.00 0.00 0.00 0.00 0.00 0.00 0.00 0.00 0.00 0.00 0.00 0.00 0.00 0.00 0.00 0.00 0.00 0.00 0.00
0.00 0.00 0.00 0.00 0.00 0.00 0.00 0.00 0.00 0.00 0.00 0.00 0.00 0.00 0.00 0.00 0.00 0.00 0.00 0.00 0.00 0.00 0.00 0.00 0.00 0.00 0.00 0.00 0.00 0.00 0.00 0.00 0.00 0.00 0.00 0.00 0.00 0.00 0.00 0.00 0.00 0.00 0.00 0.00 0.00 0.00 0.00 0.00 0.00
0.00 0.00 0.00 0.00 0.00 0.00 0.00 0.00 0.00 0.00 0.00 0.00 0.00 0.00 0.00 0.00 0.00 0.00 0.00 0.00 0.00 0.00 0.00 0.00 0.00 0.00 0.00 0.00 0.00 0.00 0.00 0.00 0.00 0.00 0.00 0.00 0.00 0.00 0.00 0.00 0.00 0.00 0.00 0.00 0.00 0.00 0.00 0.00 0.00
0.00 0.01 0.00 0.00 0.00 0.00 0.00 0.00 0.00 0.00 0.00 0.00 0.00 0.00 0.00 0.00 0.00 0.00 0.00 0.00 0.00 0.00 0.00 0.00 0.00 0.00 0.00 0.00 0.00 0.00 0.00 0.00 0.00 0.00 0.00 0.00 0.00 0.00 0.00 0.00 0.00 0.00 0.00 0.00 0.00 0.00 0.00 0.00 0.00
0.00 0.00 0.01 0.01 0.00 0.00 0.00 0.00 0.00 0.00 0.00 0.00 0.00 0.00 0.00 0.00 0.00 0.00 0.00 0.00 0.00 0.00 0.00 0.00 0.00 0.00 0.00 0.00 0.00 0.00 0.00 0.00 0.00 0.00 0.00 0.00 0.00 0.00 0.00 0.00 0.00 0.00 0.00 0.00 0.00 0.00 0.00 0.00 0.00
0.00 0.01 0.01 0.00 0.00 0.00 0.00 0.00 0.00 0.00 0.00 0.00 0.00 0.00 0.00 0.00 0.00 0.00 0.00 0.00 0.00 0.00 0.00 0.00 0.00 0.00 0.00 0.00 0.00 0.00 0.00 0.00 0.00 0.00 0.00 0.00 0.00 0.00 0.00 0.00 0.00 0.00 0.00 0.00 0.00 0.00 0.00 0.00 0.00
0.00 0.00 0.00 0.00 0.00 0.00 0.00 0.00 0.00 0.00 0.00 0.00 0.00 0.00 0.00 0.00 0.00 0.00 0.00 0.00 0.00 0.00 0.00 0.00 0.00 0.00 0.00 0.00 0.00 0.00 0.00 0.00 0.00 0.00 0.00 0.00 0.00 0.00 0.00 0.00 0.00 0.00 0.00 0.00 0.00 0.00 0.00 0.00 0.00
MSLP
1011.94 1011.53 1011.78 1012.19 1014.10 1015.44 1016.38 1016.66 1016.26 1016.03 1016.16 1016.30 1016.19 1016.49 1017.64 1018.13 1018.45 1019.13 1018.75 1018.93 1019.14 1019.63 1019.90 1020.10 1020.29 1020.46 1020.55 1020.68 1020.82 1020.90 1020.91 1020.90 1020.96 1021.08 1021.15 1021.20 1021.25 1021.31 1021.41 1021.39 1021.42 1021.55 1021.61 1021.51 1021.66 1021.74 1021.89 1021.97 1021.96
1011.77 1011.42 1011.98 1013.08 1015.00 1016.65 1017.19 1016.70 1016.20 1015.97 1016.28 1016.41 1016.63 1017.26 1017.71 1018.63 1018.43 1018.71 1018.96 1019.05 1019.16 1019.57 1019.89 1020.13 1020.37 1020.56 1020.67 1020.80 1020.91 1021.00 1021.03 1021.04 1021.08 1021.24 1021.34 1021.43 1021.55 1021.62 1021.58 1021.62 1021.70 1021.61 1021.78 1021.70 1021.89 1021.96 1022.05 1022.12 1022.12
1011.37 1011.53 1012.78 1013.93 1015.68 1016.56 1016.71 1016.60 1015.91 1015.93 1016.12 1016.25 1017.01 1017.56 1018.02 1018.60 1018.52 1018.50 1018.40 1018.86 1019.28 1019.61 1019.90 1020.22 1020.46 1020.64 1020.77 1020.92 1021.05 1021.15 1021.17 1021.16 1021.20 1021.28 1021.33 1021.44 1021.60 1021.79 1021.86 1021.93 1021.93 1021.96 1021.97 1021.88 1022.07 1022.17 1022.26 1022.24 1022.21
1011.61 1012.07 1013.54 1014.35 1015.72 1016.05 1015.87 1015.90 1015.56 1015.83 1016.15 1016.38 1017.09 1018.13 1018.32 1018.25 1018.12 1018.08 1018.40 1018.74 1019.19 1019.63 1019.93 1020.18 1020.38 1020.61 1020.79 1020.95 1021.07 1021.16 1021.24 1021.27 1021.30 1021.36 1021.40 1021.48 1021.51 1021.68 1021.83 1021.98 1022.07 1022.07 1022.05 1022.15 1022.22 1022.26 1022.36 1022.38 1022.30
1012.07 1013.29 1014.72 1015.62 1015.80 1015.77 1015.63 1015.46 1015.34 1015.76 1016.17 1016.82 1017.11 1018.43 1018.59 1018.33 1017.93 1018.12 1018.46 1018.50 1019.04 1019.63 1019.93 1020.21 1020.37 1020.55 1020.78 1020.95 1021.12 1021.26 1021.32 1021.38 1021.44 1021.47 1021.53 1021.62 1021.71 1021.84 1021.94 1022.00 1022.05 1022.12 1022.21 1022.29 1022.35 1022.45 1022.51 1022.52 1022.42
1013.38 1014.33 1015.79 1016.29 1016.10 1015.74 1015.49 1015.26 1015.54 1015.87 1016.52 1016.97 1017.69 1018.27 1018.84 1018.55 1018.30 1018.37 1018.48 1018.72 1018.98 1019.44 1019.88 1020.16 1020.36 1020.55 1020.74 1020.94 1021.12 1021.27 1021.37 1021.43 1021.48 1021.57 1021.62 1021.73 1021.82 1021.90 1021.97 1022.02 1022.11 1022.25 1022.30 1022.39 1022.45 1022.59 1022.69 1022.71 1022.66
1014.12 1015.20 1016.05 1016.41 1016.18 1015.57 1015.28 1015.11 1015.69 1016.01 1016.47 1016.82 1017.12 1018.52 1019.00 1018.80 1018.47 1018.44 1018.60 1018.65 1018.98 1019.24 1019.72 1020.11 1020.32 1020.55 1020.74 1020.92 1021.05 1021.19 1021.31 1021.41 1021.48 1021.55 1021.63 1021.71 1021.85 1021.95 1022.01 1022.08 1022.11 1022.16 1022.24 1022.34 1022.43 1022.56 1022.66 1022.69 1022.70
1014.79 1015.40 1016.16 1016.28 1016.02 1015.60 1015.23 1015.38 1015.68 1016.04 1016.62 1016.56 1016.87 1018.17 1019.01 1018.52 1018.44 1018.61 1018.82 1019.01 1019.32 1019.37 1019.47 1019.93 1020.17 1020.40 1020.63 1020.80 1020.87 1020.99 1021.13 1021.30 1021.41 1021.49 1021.58 1021.61 1021.73 1021.86 1021.97 1022.06 1022.13 1022.14 1022.16 1022.23 1022.34 1022.49 1022.61 1022.63 1022.62
1014.85 1015.69 1016.31 1016.06 1015.91 1015.39 1015.36 1015.45 1015.72 1016.04 1016.57 1017.08 1017.40 1017.49 1017.49 1018.08 1018.51 1018.94 1019.28 1019.50 1019.54 1019.60 1019.55 1019.79 1020.07 1020.22 1020.33 1020.48 1020.70 1020.97 1021.07 1021.18 1021.29 1021.45 1021.56 1021.68 1021.82 1021.89 1021.97 1022.02 1022.05 1022.05 1022.09 1022.15 1022.26 1022.37 1022.49 1022.61 1022.68
1015.52 1016.08 1015.93 1015.55 1015.24 1015.22 1015.33 1015.43 1015.82 1016.51 1017.11 1017.78 1017.86 1017.91 1017.95 1018.28 1018.62 1019.07 1019.32 1019.48 1019.50 1019.59 1019.63 1019.62 1019.83 1019.97 1020.12 1020.15 1020.33 1020.62 1020.80 1021.03 1021.15 1021.25 1021.41 1021.60 1021.72 1021.84 1021.89 1021.96 1021.98 1022.01 1022.04 1022.09 1022.15 1022.21 1022.29 1022.44 1022.67
1015.99 1016.27 1015.89 1015.62 1015.27 1015.06 1015.34 1015.68 1015.77 1016.46 1017.20 1017.34 1017.82 1018.14 1018.31 1018.53 1018.78 1018.91 1019.14 1019.20 1019.09 1019.09 1019.27 1019.41 1019.44 1019.56 1019.76 1019.89 1020.06 1020.30 1020.35 1020.68 1020.86 1021.00 1021.19 1021.32 1021.47 1021.61 1021.78 1021.93 1021.95 1021.97 1022.03 1022.14 1022.12 1022.21 1022.33 1022.49 1022.62
1016.29 1016.36 1016.12 1015.92 1015.74 1015.60 1015.76 1015.86 1016.10 1016.28 1016.39 1016.37 1017.10 1017.41 1018.05 1018.49 1018.71 1018.80 1018.90 1018.99 1018.98 1019.05 1018.93 1018.99 1019.02 1019.30 1019.43 1019.58 1019.84 1019.86 1020.00 1020.16 1020.42 1020.55 1020.63 1020.90 1021.17 1021.39 1021.55 1021.69 1021.68 1021.82 1021.84 1022.01 1022.12 1022.23 1022.27 1022.37 1022.44
1016.50 1016.64 1016.58 1016.44 1016.23 1016.38 1016.22 1016.51 1016.61 1016.43 1016.26 1016.60 1017.35 1017.81 1018.01 1018.18 1018.34 1018.31 1018.41 1018.46 1018.46 1018.69 1018.67 1018.76 1018.82 1019.05 1019.17 1019.39 1019.46 1019.62 1019.75 1019.80 1019.80 1019.89 1020.06 1020.31 1020.57 1020.78 1021.09 1021.30 1021.46 1021.57 1021.66 1021.83 1021.97 1022.05 1022.09 1022.13 1022.13
1017.00 1016.93 1016.90 1016.97 1016.76 1016.83 1016.95 1017.15 1016.77 1016.97 1016.93 1017.19 1017.62 1017.96 1018.09 1017.97 1017.91 1018.01 1018.13 1018.20 1018.32 1018.45 1018.52 1018.57 1018.77 1018.81 1019.03 1019.21 1019.25 1019.20 1019.25 1019.27 1019.48 1019.57 1019.63 1019.74 1019.85 1020.12 1020.45 1020.77 1021.03 1021.21 1021.28 1021.34 1021.48 1021.58 1021.68 1021.72 1021.81
1017.52 1017.70 1017.49 1017.52 1017.39 1017.31 1017.35 1017.76 1017.33 1017.44 1017.55 1017.96 1018.10 1018.03 1018.10 1017.88 1017.84 1017.78 1017.68 1017.76 1018.04 1018.39 1018.51 1018.78 1018.78 1018.82 1018.88 1018.95 1018.92 1018.92 1018.93 1018.97 1019.12 1019.20 1019.26 1019.40 1019.60 1019.76 1019.80 1020.14 1020.34 1020.52 1020.63 1020.85 1021.07 1021.20 1021.30 1021.43 1021.42
1018.51 1018.71 1018.77 1017.95 1017.81 1017.67 1017.86 1018.13 1017.55 1017.68 1018.19 1018.53 1018.66 1018.62 1018.41 1018.05 1017.77 1017.67 1017.52 1017.76 1017.98 1018.30 1018.66 1018.70 1018.61 1018.68 1018.77 1018.90 1018.90 1018.69 1018.59 1018.67 1018.75 1018.85 1018.88 1018.97 1019.13 1019.25 1019.35 1019.50 1019.82 1019.84 1020.03 1020.20 1020.43 1020.61 1020.93 1021.05 1021.12
1019.84 1019.74 1019.62 1018.84 1018.18 1018.19 1018.58 1018.71 1017.83 1017.83 1018.06 1018.57 1018.72 1018.80 1018.66 1018.30 1017.97 1017.80 1017.86 1017.95 1018.18 1018.41 1018.69 1018.91 1018.94 1018.96 1018.88 1018.71 1018.70 1018.67 1018.49 1018.49 1018.42 1018.51 1018.64 1018.65 1018.76 1018.75 1019.02 1019.15 1019.28 1019.44 1019.65 1019.84 1019.97 1020.14 1020.31 1020.36 1020.45
1020.12 1020.25 1019.78 1019.31 1018.77 1018.84 1018.99 1018.97 1018.32 1018.13 1018.27 1018.63 1018.70 1018.68 1018.77 1018.37 1017.99 1018.04 1018.35 1018.60 1018.87 1019.00 1019.07 1019.18 1019.20 1019.13 1018.95 1018.74 1018.63 1018.51 1018.41 1018.38 1018.33 1018.27 1018.27 1018.30 1018.35 1018.42 1018.68 1018.91 1019.06 1019.23 1019.36 1019.52 1019.58 1019.76 1019.89 1019.88 1019.87
1019.74 1020.08 1020.01 1019.79 1019.08 1019.32 1019.36 1019.28 1018.85 1018.41 1018.64 1018.69 1018.64 1018.48 1018.68 1018.45 1018.06 1018.26 1018.65 1018.99 1019.22 1019.49 1019.40 1019.44 1019.40 1019.39 1019.22 1019.12 1019.08 1018.88 1018.80 1018.53 1018.49 1018.27 1018.16 1018.21 1018.27 1018.37 1018.58 1018.90 1019.05 1018.96 1019.17 1019.24 1019.35 1019.53 1019.58 1019.68 1019.60
1020.17 1020.37 1020.36 1020.12 1019.71 1019.84 1019.77 1019.63 1019.20 1018.83 1018.57 1018.29 1018.06 1018.04 1018.02 1018.25 1018.45 1018.76 1019.15 1019.31 1019.43 1019.65 1019.69 1019.75 1019.72 1019.44 1019.35 1019.29 1019.07 1018.96 1018.86 1019.04 1018.96 1018.83 1018.80 1018.58 1018.62 1018.98 1019.02 1019.10 1019.21 1019.10 1019.21 1019.19 1019.24 1019.35 1019.41 1019.34 1019.24
1020.32 1020.39 1020.48 1020.60 1020.50 1020.44 1020.51 1019.96 1019.37 1018.28 1017.91 1017.49 1017.12 1016.86 1016.89 1017.45 1018.34 1018.85 1019.36 1019.73 1019.79 1019.88 1020.02 1020.13 1020.06 1019.70 1019.61 1019.41 1019.09 1018.92 1019.11 1019.22 1019.47 1019.48 1019.49 1019.66 1019.63 1019.49 1019.66 1019.89 1019.83 1019.60 1019.25 1019.41 1019.33 1019.28 1019.28 1019.25 1018.97
1020.25 1020.15 1020.55 1021.01 1021.44 1021.67 1021.47 1020.66 1019.50 1018.53 1017.79 1017.33 1016.56 1016.15 1016.12 1016.68 1017.57 1018.43 1019.07 1019.62 1019.82 1020.14 1020.31 1020.35 1020.29 1019.95 1019.99 1019.80 1019.55 1019.38 1019.58 1020.09 1020.59 1020.56 1020.56 1020.62 1020.74 1020.46 1020.60 1020.48 1020.50 1020.34 1020.12 1020.05 1019.93 1019.58 1019.30 1019.05 1019.00
1019.82 1019.99 1020.68 1021.33 1021.88 1022.21 1022.15 1022.25 1019.00 1018.38 1017.73 1016.74 1015.86 1015.61 1015.49 1015.68 1016.54 1017.57 1018.62 1019.16 1019.68 1020.12 1020.50 1020.59 1020.48 1020.31 1020.41 1020.26 1020.12 1020.13 1020.39 1020.77 1020.96 1021.03 1021.14 1021.30 1021.39 1021.53 1021.38 1021.12 1021.06 1020.89 1020.86 1020.80 1020.47 1020.03 1019.78 1019.61 1019.09
1019.59 1020.42 1021.26 1022.01 1022.58 1022.41 1021.93 1022.10 1018.74 1017.88 1016.53 1015.77 1015.24 1014.99 1015.07 1015.69 1016.44 1017.55 1018.50 1019.11 1019.71 1020.27 1020.60 1020.61 1020.53 1020.70 1020.80 1020.76 1020.72 1020.71 1020.87 1021.15 1021.32 1021.58 1021.73 1021.92 1021.99 1022.09 1021.84 1021.64 1021.57 1021.52 1021.44 1021.29 1021.02 1020.74 1020.49 1020.26 1020.05
1019.53 1020.77 1022.30 1023.17 1023.44 1022.16 1021.37 1021.41 1017.33 1016.87 1015.82 1015.35 1014.92 1014.65 1014.99 1015.60 1016.46 1017.42 1018.37 1019.14 1019.82 1020.29 1020.64 1020.75 1020.77 1021.15 1021.25 1021.24 1021.27 1021.32 1021.39 1021.55 1021.83 1022.19 1022.43 1022.38 1022.44 1022.59 1022.51 1022.22 1022.09 1021.97 1021.82 1021.66 1021.45 1021.30 1021.18 1021.13 1021.07
1018.84 1019.90 1021.04 1022.22 1023.08 1022.37 1021.61 1019.89 1017.04 1015.62 1014.91 1014.75 1014.51 1014.67 1015.34 1016.29 1016.86 1017.50 1018.25 1018.99 1019.63 1020.21 1020.59 1020.69 1020.97 1021.39 1021.58 1021.72 1021.88 1021.93 1021.98 1022.16 1022.34 1022.50 1022.44 1022.62 1022.88 1022.94 1022.84 1022.62 1022.45 1022.36 1022.19 1022.03 1021.97 1021.98 1021.88 1021.87 1021.79
1018.97 1019.38 1020.28 1021.71 1023.08 1022.81 1020.90 1018.83 1016.84 1015.34 1014.92 1014.60 1014.64 1015.12 1015.64 1016.17 1016.75 1017.44 1018.28 1018.90 1019.58 1020.06 1020.43 1020.72 1021.15 1021.56 1021.83 1022.07 1022.22 1022.34 1022.55 1022.60 1022.62 1022.68 1022.75 1023.00 1023.04 1022.86 1023.06 1022.91 1022.84 1022.76 1022.74 1022.64 1022.54 1022.61 1022.57 1022.48 1022.41
1017.96 1018.82 1020.25 1021.42 1022.67 1022.36 1020.20 1018.74 1016.43 1015.36 1014.95 1014.75 1015.00 1015.23 1015.56 1016.38 1017.08 1017.67 1018.29 1018.82 1019.39 1019.82 1020.34 1020.84 1021.18 1021.62 1022.04 1022.32 1022.55 1022.73 1022.85 1022.86 1022.98 1023.15 1023.27 1023.39 1023.39 1023.29 1023.24 1023.16 1023.15 1023.24 1023.28 1023.17 1023.04 1023.13 1023.15 1023.06 1023.01
1018.04 1018.31 1019.02 1019.79 1020.81 1020.67 1019.72 1017.14 1015.20 1014.43 1014.38 1014.69 1015.08 1015.41 1015.79 1016.22 1016.84 1017.49 1018.05 1018.61 1019.14 1019.71 1020.22 1020.71 1021.24 1021.72 1022.22 1022.43 1022.74 1022.95 1023.16 1023.30 1023.53 1023.55 1023.64 1023.71 1023.68 1023.58 1023.49 1023.47 1023.57 1023.69 1023.76 1023.73 1023.69 1023.66 1023.70 1023.61 1023.60
1017.07 1017.19 1017.91 1018.51 1019.57 1019.69 1018.83 1015.06 1014.34 1013.93 1014.07 1014.11 1014.56 1014.90 1015.19 1015.87 1016.64 1017.23 1017.79 1018.50 1019.19 1019.71 1020.20 1020.59 1021.10 1021.54 1021.92 1022.26 1022.74 1023.22 1023.45 1023.84 1023.94 1024.01 1024.09 1024.02 1023.93 1023.67 1023.54 1023.60 1023.83 1024.03 1024.11 1024.17 1024.14 1024.20 1024.20 1024.15 1024.13
Thickness
5766 5770 5770 5760 5720 5707 5692 5700 5715 5716 5715 5721 5725 5718 5705 5704 5699 5687 5714 5714 5711 5708 5705 5704 5703 5702 5702 5701 5700 5700 5700 5700 5699 5698 5698 5698 5697 5696 5695 5695 5695 5695 5694 5696 5695 5695 5695 5695 5694
5767 5770 5761 5739 5702 5680 5684 5708 5710 5720 5719 5720 5720 5715 5708 5697 5711 5709 5709 5713 5712 5709 5706 5705 5703 5702 5702 5701 5700 5700 5700 5699 5699 5697 5696 5696 5695 5695 5695 5694 5694 5695 5693 5694 5693 5693 5693 5693 5692
5768 5767 5740 5720 5697 5683 5687 5707 5714 5725 5722 5724 5717 5716 5710 5704 5712 5714 5718 5715 5712 5710 5707 5705 5703 5702 5701 5700 5699 5699 5698 5698 5698 5697 5696 5696 5694 5692 5691 5691 5692 5692 5693 5693 5692 5692 5691 5691 5691
5758 5750 5734 5707 5702 5709 5707 5712 5724 5722 5725 5724 5716 5703 5712 5719 5718 5721 5719 5716 5713 5710 5707 5705 5704 5702 5701 5700 5698 5697 5697 5697 5697 5697 5696 5696 5696 5694 5693 5692 5690 5690 5689 5689 5689 5689 5688 5688 5689
5751 5729 5700 5695 5705 5713 5717 5720 5726 5724 5721 5718 5719 5700 5703 5717 5724 5722 5719 5718 5715 5710 5707 5705 5703 5702 5700 5699 5697 5696 5696 5696 5696 5695 5695 5695 5694 5693 5691 5690 5690 5689 5688 5688 5687 5686 5686 5686 5686
5724 5715 5685 5682 5699 5711 5716 5724 5724 5717 5716 5716 5707 5704 5703 5717 5719 5720 5720 5717 5715 5712 5707 5705 5703 5702 5701 5699 5697 5695 5695 5694 5694 5694 5693 5693 5692 5691 5691 5690 5690 5688 5687 5686 5685 5684 5683 5682 5682
5713 5695 5686 5684 5692 5705 5715 5726 5717 5714 5714 5715 5717 5697 5703 5710 5718 5720 5719 5718 5715 5712 5708 5706 5704 5702 5700 5699 5698 5696 5695 5694 5693 5693 5692 5692 5691 5691 5690 5689 5689 5688 5687 5685 5684 5682 5681 5680 5679
5705 5696 5692 5691 5687 5695 5716 5718 5717 5716 5713 5724 5722 5697 5694 5711 5717 5717 5716 5715 5713 5711 5710 5707 5705 5704 5702 5700 5699 5698 5696 5694 5693 5692 5692 5692 5691 5690 5689 5689 5688 5687 5686 5685 5683 5682 5680 5679 5678
5711 5680 5673 5690 5690 5701 5712 5711 5720 5721 5713 5715 5714 5715 5719 5717 5715 5711 5709 5708 5709 5709 5710 5707 5705 5705 5704 5702 5700 5698 5697 5696 5694 5693 5692 5691 5690 5689 5688 5688 5687 5686 5685 5683 5682 5681 5679 5677 5676
5687 5670 5683 5698 5703 5702 5706 5710 5710 5706 5703 5701 5706 5712 5715 5713 5711 5706 5704 5703 5705 5706 5707 5708 5706 5705 5704 5703 5702 5701 5699 5697 5696 5695 5694 5692 5691 5689 5688 5688 5687 5686 5684 5682 5681 5680 5678 5676 5674
5686 5671 5686 5693 5703 5709 5703 5702 5710 5697 5698 5701 5700 5703 5706 5706 5706 5705 5704 5704 5706 5708 5708 5707 5707 5707 5706 5705 5704 5703 5702 5700 5699 5697 5696 5695 5693 5692 5691 5689 5688 5687 5685 5683 5681 5679 5677 5675 5672
5674 5679 5683 5689 5694 5701 5698 5702 5698 5702 5706 5713 5709 5710 5705 5703 5702 5703 5703 5704 5705 5706 5709 5709 5709 5708 5708 5707 5705 5705 5704 5703 5701 5700 5699 5697 5695 5694 5691 5690 5688 5687 5685 5683 5681 5678 5676 5674 5671
5671 5673 5677 5680 5687 5687 5695 5688 5689 5697 5708 5707 5703 5701 5701 5702 5702 5706 5706 5706 5708 5706 5707 5708 5708 5707 5706 5706 5706 5705 5704 5704 5704 5702 5701 5699 5697 5696 5693 5690 5688 5686 5684 5682 5679 5677 5674 5672 5670
5666 5667 5672 5672 5677 5681 5679 5680 5686 5690 5696 5695 5696 5694 5696 5699 5702 5704 5704 5706 5706 5708 5706 5705 5705 5705 5704 5704 5704 5705 5704 5704 5703 5702 5701 5700 5698 5696 5694 5691 5688 5686 5684 5682 5679 5676 5673 5670 5668
5657 5654 5658 5662 5665 5668 5672 5665 5676 5679 5683 5682 5685 5689 5691 5695 5699 5700 5704 5706 5707 5704 5702 5701 5702 5702 5701 5702 5702 5703 5703 5703 5702 5701 5700 5699 5697 5695 5694 5691 5688 5686 5685 5681 5677 5674 5671 5668 5666
5638 5633 5628 5652 5657 5662 5660 5645 5673 5673 5669 5669 5672 5674 5680 5687 5693 5697 5700 5702 5702 5700 5696 5697 5699 5699 5700 5699 5699 5700 5700 5700 5699 5698 5698 5697 5695 5692 5691 5689 5685 5684 5682 5680 5677 5673 5669 5666 5663
5609 5607 5615 5633 5649 5651 5646 5639 5663 5670 5665 5663 5663 5668 5670 5676 5684 5689 5692 5694 5694 5694 5691 5690 5692 5692 5694 5696 5696 5696 5697 5696 5696 5694 5692 5691 5690 5689 5687 5685 5682 5680 5677 5674 5672 5669 5665 5664 5660
5601 5604 5612 5617 5642 5636 5633 5631 5655 5659 5661 5658 5659 5661 5664 5669 5677 5680 5681 5680 5682 5684 5683 5682 5684 5685 5688 5689 5691 5691 5692 5691 5691 5690 5689 5686 5684 5683 5681 5678 5675 5673 5671 5668 5666 5663 5659 5658 5656
5604 5601 5604 5609 5625 5625 5619 5625 5640 5650 5647 5647 5653 5658 5656 5661 5672 5670 5671 5671 5672 5673 5674 5673 5676 5676 5678 5679 5679 5680 5680 5682 5683 5682 5681 5679 5677 5674 5672 5669 5666 5665 5663 5662 5659 5656 5653 5649 5647
5592 5592 5594 5602 5613 5611 5615 5614 5626 5637 5642 5645 5649 5651 5655 5656 5656 5658 5660 5663 5664 5664 5664 5663 5665 5668 5669 5669 5671 5670 5670 5669 5669 5669 5669 5669 5667 5663 5661 5658 5655 5654 5653 5652 5649 5645 5642 5640 5637
5581 5580 5585 5590 5592 5597 5596 5599 5613 5634 5637 5644 5651 5657 5661 5656 5649 5648 5649 5650 5652 5653 5653 5653 5655 5658 5659 5660 5662 5662 5660 5659 5656 5655 5655 5652 5652 5651 5648 5644 5642 5640 5640 5638 5637 5635 5631 5627 5626
5569 5580 5581 5579 5574 5565 5582 5558 5601 5621 5629 5634 5644 5653 5658 5653 5646 5643 5642 5641 5643 5642 5642 5641 5643 5646 5646 5647 5649 5651 5648 5644 5638 5638 5638 5636 5634 5635 5631 5629 5626 5624 5623 5621 5619 5618 5618 5617 5613
5570 5574 5570 5569 5562 5559 5567 5552 5589 5611 5619 5631 5640 5644 5653 5653 5647 5642 5637 5636 5634 5631 5629 5630 5631 5633 5632 5633 5634 5633 5630 5627 5624 5623 5622 5620 5618 5615 5613 5612 5609 5607 5605 5603 5602 5602 5601 5599 5600
5565 5561 5557 5549 5548 5542 5560 5558 5564 5607 5626 5634 5638 5641 5644 5644 5640 5633 5626 5624 5621 5617 5616 5618 5619 5618 5617 5618 5617 5617 5615 5612 5610 5607 5605 5602 5599 5596 5596 5595 5593 5590 5587 5585 5584 5582 5581 5579 5577
5554 5544 5522 5522 5527 5530 5559 5555 5599 5601 5620 5627 5634 5638 5636 5631 5628 5622 5615 5610 5608 5605 5603 5604 5605 5602 5601 5601 5600 5600 5599 5596 5593 5589 5586 5584 5581 5578 5577 5576 5574 5571 5569 5567 5566 5565 5562 5558 5554
5552 5545 5531 5511 5519 5523 5537 5544 5580 5598 5615 5620 5624 5628 5620 5614 5614 5611 5604 5599 5595 5593 5592 5591 5589 5586 5585 5584 5583 5581 5580 5578 5575 5572 5571 5568 5564 5562 5560 5558 5556 5553 5551 5549 5547 5544 5541 5537 5534
5531 5533 5543 5520 5473 5488 5529 5551 5578 5592 5601 5610 5611 5609 5605 5604 5601 5597 5590 5587 5582 5579 5577 5576 5573 5570 5569 5567 5565 5564 5562 5560 5559 5557 5555 5551 5548 5546 5542 5540 5536 5534 5531 5529 5526 5522 5519 5516 5513
5529 5535 5516 5482 5469 5472 5529 5535 5566 5589 5589 5592 5597 5595 5595 5591 5585 5580 5577 5573 5570 5568 5564 5561 5558 5556 5553 5551 5548 5546 5544 5543 5542 5538 5535 5531 5529 5527 5525 5522 5519 5515 5511 5509 5506 5502 5497 5494 5490
5523 5519 5521 5522 5493 5487 5493 5539 5563 5583 5583 5576 5577 5581 5581 5577 5574 5569 5565 5562 5560 5555 5550 5547 5544 5540 5537 5535 5531 5529 5527 5525 5520 5518 5515 5512 5510 5508 5507 5504 5500 5495 5492 5489 5485 5481 5476 5473 5470
5525 5524 5521 5514 5496 5499 5508 5556 5573 5572 5571 5574 5570 5565 5567 5567 5561 5555 5553 5549 5543 5540 5537 5535 5532 5528 5524 5521 5518 5512 5508 5503 5500 5497 5495 5493 5492 5491 5489 5486 5481 5476 5472 5468 5465 5460 5456 5452 5449